"Pseudo-MPEC" for C0V12M5

Created 2024 Nov 1 12:31:06 UT using Find_Orb

Click here for an explanation of pseudo-MPECs

 
 Astrometry: 
     C0V12M5* C2024 10 31.30689801 49 11.363+20 56 22.52   ~AV8H 21.30GVNEOCPV00
     C0V12M5  C2024 10 31.31449501 49 09.340+20 55 53.33   ~AV8H 21.25GVNEOCPV00
     C0V12M5  C2024 10 31.32107801 49 07.590+20 55 27.88   ~AV8H 21.31GVNEOCPV00
     C0V12M5  C2024 10 31.32668901 49 06.085+20 55 05.99   ~AV8H 21.26GVNEOCPV00
     C0V12M5 KC2024 10 31.40568 01 48 45.47 +20 49 41.6    ~AVAH 21.3 RVNEOCP291
     C0V12M5 KC2024 10 31.41001 01 48 44.40 +20 49 22.8    ~AVAH 21.7 RVNEOCP291
     C0V12M5 KC2024 10 31.41433 01 48 43.33 +20 49 04.1    ~AVAH 21.3 RVNEOCP291
     C0V12M5 1C2024 10 31.93491 01 47 00.95 +20 07 30.1    ~AVNH 20.8 VXNEOCP033
     C0V12M5 1C2024 10 31.93708 01 47 00.26 +20 07 17.5    ~AVNH 20.8 VXNEOCP033
     C0V12M5 1C2024 10 31.93923 01 46 59.52 +20 07 06.3    ~AVNH 21.0 VXNEOCP033
     C0V12M5 KB2024 11 01.06580 01 46 15.59 +19 54 50.6    ~B18H       VNEOCP204
     C0V12M5 KB2024 11 01.08031 01 46 10.56 +19 53 16.5    ~B18H 21.1 GVNEOCP204
     C0V12M5 KC2024 11 01.14142 01 46 18.55 +19 48 03.7    ~B14V 21.1 RVNEOCP691
     C0V12M5 KC2024 11 01.14816 01 46 16.05 +19 47 23.1    ~B14V 21.1 RVNEOCP691
     C0V12M5 KC2024 11 01.15488 01 46 13.50 +19 46 42.3    ~B14V 21.1 RVNEOCP691
     C0V12M5 KC2024 11 01.16488901 46 02.26 +19 45 18.6    ~B14V 21.2 GVNEOCPH21
     C0V12M5 KC2024 11 01.16768501 46 01.12 +19 45 00.9    ~B14V 21.0 GVNEOCPH21
     C0V12M5 KC2024 11 01.17094701 45 59.81 +19 44 40.0    ~B14V 20.8 GVNEOCPH21
     C0V12M5 KC2024 11 01.27427901 45 23.130+19 33 34.92   ~B17H 21.06GVNEOCPI52
     C0V12M5 KC2024 11 01.27604301 45 22.331+19 33 22.75   ~B17H 20.79GVNEOCPI52
     C0V12M5 KC2024 11 01.27780901 45 21.560+19 33 09.65   ~B17H 20.49GVNEOCPI52
     C0V12M5 KC2024 11 01.27958801 45 20.736+19 32 57.08   ~B17H 20.63GVNEOCPI52

Station data:
(033) Karl Schwarzschild Observatory, Tautenburg  (N50.980139 E11.711240)
   Germany.  Observer B. Stecklum. 1.34-m f/3 Schmidt + CCD.
(204) Schiaparelli Observatory  (N45.868292 E8.769720)  Italy.  Observer L.
   Buzzi. 0.60-m f/4.64 Newtonian + CCD0.84-m f/3.5 reflector + CCD.
(291) LPL/Spacewatch II  (N31.961669 W111.599905)  US/Arizona.  Observers J.
   V. Scotti, R. S. McMillan. 1.8-m f/2.7 reflector + CCD.
(691) Steward Observatory, Kitt Peak - Spacewatch  (N31.962174 W111.600327)
   US/Arizona.  Observer J. V. Scotti. 0.9-m f/3 reflector + CCD.
(H21) Astronomical Research Observatory, Westfield  (N39.483054 W87.968270)
   US/Illinois.  Observer R. Holmes. Measurers S. Foglia, L. Buzzi, T.
   Linder, R. Holmes. 0.76-m f/3.0 astrograph + CCD0.81-m f/4.0 astrograph +
   CCD0.61-m f/4.5 astrograph + CCD0.40-m f/5.32 astrograph + CCD.
(I52) Steward Observatory, Mt. Lemmon Station  (N32.442570 W110.788920)
   US/Arizona.  Observers T. A. Pruyne, B. M. Africano, E. J. Christensen, G.
   A. Farneth, D. C. Fuls, A. R. Gibbs, A. D. Grauer, H. Gröller, J. A.
   Johnson, R. A. Kowalski, S. M. Larson, G. J. Leonard, D. Rankin, R. L.
   Seaman, F. C. Shelly, K. W. Wierzchoś. 1.0-m prime focus + CCD.
(V00) Kitt Peak-Bok  (N31.963125 W111.600190)  US/Arizona.  Observers T. A.
   Pruyne, B. M. Africano, E. J. Christensen, G. A. Farneth, D. C. Fuls, A.
   R. Gibbs, A. D. Grauer, H. Gröller, J. A. Johnson, R. A. Kowalski, S. M.
   Larson, G. J. Leonard, D. Rankin, R. L. Seaman, F. C. Shelly, K. W.
   Wierzchoś. 2.25-m reflector + 4x4K mosaic CCD.

Orbital elements:  C0V12M5
   Perihelion 2024 Dec 19.51983 +/- 0.0226 TT = 12:28:33 (JD 2460664.01983)
Epoch 2024 Nov  1.0 TT = JDT 2460615.5   Earth MOID: 0.0016   Ve: 0.0617
M 342.52832845 +/- 0.056            Ma: 0.0466                   AutoNEOCP
n   0.36009342 +/- 0.00101          Peri.  259.41077 +/- 0.0022
a   1.95670755 +/- 0.00364          Node   220.61147 +/- 0.0009
e   0.6538351 +/- 0.000753          Incl.    6.60122 +/- 0.006
P   2.737/999.722d         H 28.20  G  0.15   U  8.1
q 0.67734328 +/- 0.000213    Q 3.23607181 +/- 0.0075      (J2000 ecliptic)
From 22 observations 2024 Oct. 31-Nov. 1 (23.3 hr); mean residual 0".26
Residuals in arcseconds: 
241031 V00  .03-  .41+    241031 033  .48+  .35-    241101 H21  .00   .40+    
241031 V00  .04-  .29+    241031 033  .30+  .45+    241101 H21  .15+  .49+    
241031 V00  .00   .27+    241101 204  .07-  .06+    241101 I52  .04-  .07-    
241031 V00  .17-  .22+    241101 204  .10-  .22-    241101 I52  .16-  .32+    
241031 291  .24-  .25-    241101 691  .23-  .30-    241101 I52  .15+  .18-    
241031 291  .04+  .44-    241101 691  .01-  .36-    241101 I52  .20-  .03-    
241031 291  .21+  .49-    241101 691  .10-  .41-    
241031 033  .13-  .17+    241101 H21  .17+  .18+    

Ephemerides (geocentric):
Date (UTC) HH   RA             Dec           delta  r     elong  mag " sig PA
---- --------  ------------   ------------  ------ ------ -----  --- --------
2024 11 01 13  01 43 47.933   +18 59 43.73  .02398 1.0159 168.7 20.8 .167 116
2024 11 01 14  01 43 31.035   +18 53 31.19  .02355 1.0155 168.6 20.8 .181 111
2024 11 01 15  01 43 13.534   +18 47 04.66  .02312 1.0151 168.5 20.7 .197 106
2024 11 01 16  01 42 55.398   +18 40 23.36  .02269 1.0146 168.5 20.7 .215 101
2024 11 01 17  01 42 36.591   +18 33 26.42  .02226 1.0142 168.4 20.7 .236  97
2024 11 01 18  01 42 17.075   +18 26 12.92  .02183 1.0138 168.3 20.6 .260  93
2024 11 01 19  01 41 56.809   +18 18 41.88  .02140 1.0133 168.3 20.6 .286  89
2024 11 01 20  01 41 35.750   +18 10 52.21  .02097 1.0129 168.2 20.5 .315  86
2024 11 01 21  01 41 13.848   +18 02 42.74  .02054 1.0125 168.1 20.5 .348  83
2024 11 01 22  01 40 51.053   +17 54 12.21  .02011 1.0120 168.0 20.5 .385  80
2024 11 01 23  01 40 27.309   +17 45 19.25  .01968 1.0116 167.9 20.4 .425  77
2024 11 02 00  01 40 02.555   +17 36 02.36  .01926 1.0111 167.8 20.4 .470  75
2024 11 02 01  01 39 36.724   +17 26 19.92  .01883 1.0107 167.7 20.3 .520  72
2024 11 02 02  01 39 09.746   +17 16 10.13  .01840 1.0103 167.6 20.3 .575  70
2024 11 02 03  01 38 41.541   +17 05 31.05  .01797 1.0098 167.5 20.2 .636  68
2024 11 02 04  01 38 12.024   +16 54 20.55  .01754 1.0094 167.4 20.2 .703  66
2024 11 02 05  01 37 41.101   +16 42 36.28  .01712 1.0090 167.3 20.1 .777  64
2024 11 02 06  01 37 08.670   +16 30 15.66  .01669 1.0085 167.1 20.1 .860  62
2024 11 02 07  01 36 34.617   +16 17 15.82  .01626 1.0081 167.0 20.0 .951  61
2024 11 02 08  01 35 58.817   +16 03 33.62  .01584 1.0076 166.8 20.0 1.05  59
2024 11 02 09  01 35 21.132   +15 49 05.56  .01541 1.0072 166.6 19.9 1.17  58
2024 11 02 10  01 34 41.410   +15 33 47.75  .01499 1.0068 166.4 19.9 1.29  56
2024 11 02 11  01 33 59.481   +15 17 35.86  .01456 1.0063 166.2 19.8 1.43  55
2024 11 02 12  01 33 15.157   +15 00 25.04  .01414 1.0059 166.0 19.8 1.59  54
2024 11 02 13  01 32 28.226   +14 42 09.85  .01371 1.0055 165.8 19.7 1.76  53
2024 11 02 14  01 31 38.452   +14 22 44.20  .01329 1.0050 165.5 19.6 1.96  51
2024 11 02 15  01 30 45.570   +14 02 01.18  .01287 1.0046 165.2 19.6 2.18  50
2024 11 02 16  01 29 49.280   +13 39 53.00  .01244 1.0042 164.9 19.5 2.42  49
2024 11 02 17  01 28 49.243   +13 16 10.80  .01202 1.0037 164.6 19.5 2.70  48
2024 11 02 18  01 27 45.074   +12 50 44.46  .01160 1.0033 164.2 19.4 3.02  47
2024 11 02 19  01 26 36.333   +12 23 22.41  .01118 1.0028 163.8 19.3 3.38  46
2024 11 02 20  01 25 22.516   +11 53 51.36  .01076 1.0024 163.4 19.2 3.79  45
2024 11 02 21  01 24 03.045   +11 21 55.95  .01035 1.0020 162.9 19.2 4.25  45
2024 11 02 22  01 22 37.247   +10 47 18.37  .00993 1.0015 162.4 19.1 4.79  44
2024 11 02 23  01 21 04.343   +10 09 37.86  .00952 1.0011 161.8 19.0 5.41  43
2024 11 03 00  01 19 23.419   +09 28 30.14  .00910 1.0007 161.1 19.0 6.12  42
2024 11 03 01  01 17 33.403   +08 43 26.61  .00869 1.0002 160.4 18.9 6.95  41
2024 11 03 02  01 15 33.020   +07 53 53.44  .00828 0.9998 159.6 18.8 7.92  41
2024 11 03 03  01 13 20.754   +06 59 10.41  .00788 0.9994 158.7 18.7 9.06  40
2024 11 03 04  01 10 54.779   +05 58 29.42  .00748 0.9989 157.7 18.6 10.4  39
2024 11 03 05  01 08 12.884   +04 50 52.67  .00708 0.9985 156.5 18.5 12.0  39
2024 11 03 06  01 05 12.365   +03 35 10.38  999395 0.9981 155.2 18.5 13.9  38
2024 11 03 07  01 01 49.882   +02 09 57.92  940979 0.9976 153.8 18.4 16.2  37
2024 11 03 08  00 58 01.268   +00 33 32.34  883442 0.9972 152.1 18.3 18.9  37
2024 11 03 09  00 53 41.267   -01 16 11.68  826969 0.9968 150.1 18.2 22.3  36
2024 11 03 10  00 48 43.159   -03 21 46.41  771793 0.9963 147.9 18.1 26.4  36
2024 11 03 11  00 42 58.248   -05 46 15.52  718213 0.9959 145.2 18.0 31.4  36
2024 11 03 12  00 36 15.117   -08 33 16.89  666616 0.9954 142.2 18.0 37.6  35